TimeEET,TemperatureF,Dew PointF,Humidity,Sea Level PressureIn,VisibilityMPH,Wind Direction,Wind SpeedMPH,Gust SpeedMPH,PrecipitationIn,Events,Conditions,WindDirDegrees,DateUTC
12:00 AM,80.6,39.2,23,29.95,-9999.0,North,9.2,-,N/A,,Clear,360,2013-10-10 22:00:00
1:00 AM,80.6,41.0,24,29.95,-9999.0,North,6.9,-,N/A,,Clear,350,2013-10-10 23:00:00
2:00 AM,79,41,16,29.93,6,North,8.1,,,,,350,2013-10-11 00:00:00
2:00 AM,78.8,41.0,26,29.95,-9999.0,North,8.1,-,N/A,,Clear,350,2013-10-11 00:00:00
3:00 AM,77.0,37.4,24,29.95,-9999.0,North,8.1,-,N/A,,Clear,350,2013-10-11 01:00:00
4:00 AM,75.2,37.4,25,29.95,-9999.0,North,8.1,-,N/A,,Clear,360,2013-10-11 02:00:00
5:00 AM,73.4,37.4,27,29.95,-9999.0,North,5.8,-,N/A,,Clear,350,2013-10-11 03:00:00
6:00 AM,73.4,37.4,27,29.95,-9999.0,North,4.6,-,N/A,,Clear,10,2013-10-11 04:00:00
7:00 AM,75.2,39.2,27,29.98,-9999.0,NNE,4.6,-,N/A,,Clear,20,2013-10-11 05:00:00
8:00 AM,78.8,41.0,26,29.98,-9999.0,North,10.4,-,N/A,,Clear,360,2013-10-11 06:00:00
9:00 AM,84.2,39.2,20,30.01,-9999.0,North,11.5,-,N/A,,Clear,350,2013-10-11 07:00:00
10:00 AM,87.8,39.2,18,29.98,-9999.0,North,9.2,-,N/A,,Clear,360,2013-10-11 08:00:00
11:00 AM,93.2,39.2,15,29.98,-9999.0,North,6.9,-,N/A,,Clear,350,2013-10-11 09:00:00
12:00 PM,95.0,39.2,14,29.95,-9999.0,NNE,5.8,-,N/A,,Clear,20,2013-10-11 10:00:00
1:00 PM,98.6,35.6,11,29.92,-9999.0,North,5.8,-,N/A,,Clear,350,2013-10-11 11:00:00
2:00 PM,103,36,4,29.86,6,NNW,4.6,,,,,340,2013-10-11 12:00:00
2:00 PM,102.2,35.6,10,29.92,-9999.0,NNW,4.6,-,N/A,,Clear,340,2013-10-11 12:00:00
3:00 PM,102.2,35.6,10,29.89,-9999.0,NNW,5.8,-,N/A,,Clear,340,2013-10-11 13:00:00
4:00 PM,102.2,35.6,10,29.89,-9999.0,North,5.8,-,N/A,,Clear,350,2013-10-11 14:00:00
5:00 PM,98.6,33.8,10,29.89,-9999.0,North,6.9,-,N/A,,Clear,360,2013-10-11 15:00:00
6:00 PM,95.0,33.8,12,29.92,-9999.0,NE,3.5,-,N/A,,Clear,40,2013-10-11 16:00:00
7:00 PM,93.2,35.6,13,29.92,-9999.0,North,4.6,-,N/A,,Clear,360,2013-10-11 17:00:00
8:00 PM,90,36,8,29.91,6,North,6.9,,,,,350,2013-10-11 18:00:00
8:00 PM,89.6,35.6,15,29.95,-9999.0,North,6.9,-,N/A,,Clear,350,2013-10-11 18:00:00
9:00 PM,87.8,32.0,14,29.95,-9999.0,NNW,8.1,-,N/A,,Clear,340,2013-10-11 19:00:00
10:00 PM,84.2,28.4,13,29.95,-9999.0,North,6.9,-,N/A,,Clear,350,2013-10-11 20:00:00
11:00 PM,82.4,33.8,17,29.95,-9999.0,North,8.1,-,N/A,,Clear,350,2013-10-11 21:00:00